{"data":{"norad_id":53545,"epoch":"2026-05-25T03:22:22.910016Z","epoch_age_seconds":53003,"freshness":"FRESH","line1":"1 53545U 22101U   26145.14054294  .00002666  00000+0  18547-3 0  9992","line2":"2 53545  53.2150  80.9148 0001932  60.5296 299.5888 15.08856577208532","mean_motion":15.08856577,"eccentricity":0.0001932,"inclination_deg":53.215,"raan_deg":80.9148,"arg_perigee_deg":60.5296,"mean_anomaly_deg":299.5888,"bstar":0.00018547,"rev_number":20853,"period_min":95.43650615641,"perigee_km":538.35619546879,"apogee_km":541.02924487267,"semimajor_km":6917.8297201707,"source":"CELESTRAK","updated_at":"2026-05-25T13:38:17.443192Z"}}